EW1479 Weather Reports


Display with metric or nautical units.
time (UTC)temp
F
wind
direction
speed
MPH
gust
MPH
rain 1hr
in
rain 24hr
in
rain mn
in
humidity
%
barometer
mb
20191018060313 43 284 2.0 8.0 0.00 0.27 0.00 92 1014.3
20191018054822 43 290 2.0 10.0 0.00 0.27 0.00 90 1014.1
20191018053327 44 267 4.0 10.0 0.00 0.27 0.00 89 1013.9
20191018051815 44 290 4.0 12.0 0.00 0.27 0.00 88 1013.8
20191018050319 44 283 6.0 15.0 0.00 0.27 0.00 88 1013.7
20191018044828 43 312 7.0 12.0 0.00 0.27 0.00 89 1013.5
20191018043312 43 293 8.0 14.0 0.00 0.27 0.00 90 1013.3
20191018041821 43 295 5.0 12.0 0.00 0.27 0.00 91 1013.4
20191018040337 43 290 6.0 12.0 0.00 0.27 0.00 91 1013.2
20191018034827 44 293 6.0 18.0 0.00 0.27 0.27 89 1013.2
20191018033312 44 298 8.0 18.0 0.00 0.27 0.27 89 1013.0
20191018031820 44 277 7.0 13.0 0.00 0.27 0.27 89 1012.7
20191018030325 44 301 9.0 18.0 0.00 0.27 0.27 89 1012.6
20191018024813 44 294 8.0 14.0 0.00 0.28 0.27 89 1012.6
20191018023318 44 309 10.0 15.0 0.00 0.28 0.27 89 1012.5
20191018021826 44 295 9.0 15.0 0.00 0.28 0.27 89 1012.4
20191018020311 44 283 7.0 16.0 0.00 0.28 0.27 89 1012.3
20191018014820 45 284 8.0 15.0 0.00 0.28 0.27 89 1012.2
20191018013324 45 276 10.0 17.0 0.00 0.28 0.27 89 1012.0
20191018011813 45 255 7.0 18.0 0.00 0.28 0.27 89 1011.7
20191018010317 45 302 9.0 17.0 0.00 0.28 0.27 89 1011.6
20191018004822 45 289 6.0 16.0 0.00 0.28 0.27 89 1011.3
20191018003331 45 298 6.0 17.0 0.00 0.28 0.27 89 1011.1
20191018001813 45 301 7.0 13.0 0.00 0.28 0.27 89 1010.7
20191018000322 45 297 10.0 19.0 0.00 0.28 0.27 89 1010.6
20191017234825 45 281 9.0 22.0 0.00 0.28 0.27 89 1010.4
20191017233315 45 281 8.0 21.0 0.00 0.28 0.27 90 1010.1
20191017231819 45 274 11.0 19.0 0.00 0.28 0.27 90 1009.9
20191017230328 45 262 7.0 15.0 0.00 0.28 0.27 90 1009.8
20191017224812 45 284 10.0 18.0 0.00 0.28 0.27 89 1009.5
20191017223317 45 276 12.0 22.0 0.00 0.28 0.27 89 1009.4
20191017221822 45 334 10.0 19.0 0.00 0.28 0.27 89 1009.1
20191017220342 45 287 10.0 20.0 0.00 0.28 0.27 90 1008.9
20191017214813 45 279 10.0 19.0 0.00 0.31 0.27 90 1008.7
20191017213322 45 278 10.0 23.0 0.00 0.31 0.27 91 1008.4
20191017211826 45 287 11.0 23.0 0.00 0.31 0.27 90 1008.2
20191017210314 45 298 13.0 23.0 0.00 0.31 0.27 90 1008.0
20191017204819 45 300 15.0 21.0 0.00 0.37 0.27 91 1007.8
20191017203327 45 294 12.0 21.0 0.00 0.37 0.27 91 1007.5
20191017201812 45 290 12.0 21.0 0.00 0.37 0.27 91 1007.2
20191017200321 45 285 13.0 21.0 0.00 0.37 0.27 92 1007.0
20191017194824 45 298 8.0 24.0 0.00 0.41 0.27 93 1006.8
20191017193313 45 301 11.0 27.0 0.00 0.41 0.27 93 1006.4
20191017191817 44 284 15.0 25.0 0.00 0.41 0.27 94 1006.3
20191017190326 44 291 12.0 19.0 0.00 0.41 0.27 95 1006.2
20191017184811 44 243 15.0 27.0 0.00 0.48 0.27 96 1005.8
20191017183319 44 288 12.0 23.0 0.01 0.48 0.27 96 1005.7
20191017181823 44 283 12.0 22.0 0.01 0.48 0.27 96 1005.4
20191017180312 44 290 10.0 18.0 0.01 0.48 0.27 97 1005.2
20191017174816 44 293 8.0 19.0 0.01 0.57 0.27 96 1005.4
20191017173324 44 285 9.0 23.0 0.01 0.56 0.26 96 1005.2
20191017171829 44 277 12.0 20.0 0.01 0.56 0.26 96 1005.0
20191017170317 44 302 14.0 21.0 0.02 0.56 0.26 96 1004.8
20191017164821 44 289 11.0 19.0 0.02 0.60 0.26 96 1004.7
20191017163325 44 297 11.0 21.0 0.01 0.59 0.25 95 1004.4
20191017161813 44 283 10.0 24.0 0.03 0.59 0.25 95 1004.2
20191017160328 44 302 12.0 25.0 0.03 0.58 0.24 95 1004.0
20191017154822 44 277 12.0 19.0 0.04 0.60 0.24 95 1003.9
20191017153325 44 291 11.0 25.0 0.05 0.60 0.24 95 1003.7
20191017151813 44 277 12.0 20.0 0.04 0.58 0.22 95 1003.3
20191017150318 44 288 9.0 23.0 0.03 0.57 0.21 94 1003.1
20191017144826 44 293 10.0 22.0 0.03 0.58 0.20 94 1002.7
20191017143329 44 311 13.0 21.0 0.03 0.57 0.19 94 1002.4
20191017141817 44 311 11.0 19.0 0.02 0.56 0.18 95 1002.1
20191017140320 44 293 13.0 25.0 0.02 0.56 0.18 95 1001.9
20191017134827 44 298 15.0 24.0 0.01 0.55 0.17 94 1001.7
20191017133331 44 318 13.0 21.0 0.00 0.54 0.16 94 1001.4
20191017131817 44 285 9.0 17.0 0.01 0.54 0.16 95 1001.0
20191017130322 44 283 13.0 22.0 0.01 0.54 0.16 94 1000.8
20191017124810 45 287 9.0 20.0 0.02 0.54 0.16 95 1000.9
20191017123314 45 330 12.0 20.0 0.03 0.54 0.16 95 1000.8
20191017121822 45 291 11.0 20.0 0.03 0.53 0.15 95 1000.5
20191017120326 45 270 15.0 22.0 0.04 0.53 0.15 95 1000.4
20191017114814 46 307 9.0 22.0 0.03 0.52 0.14 96 1000.2
20191017113318 45 309 14.0 25.0 0.05 0.51 0.13 96 999.8
20191017111826 45 304 10.0 19.0 0.05 0.50 0.12 96 999.7
20191017110311 45 298 11.0 16.0 0.07 0.49 0.11 96 999.5
20191017104818 45 273 10.0 19.0 0.07 0.49 0.11 96 999.5
20191017103323 45 280 9.0 15.0 0.05 0.46 0.08 96 999.7
20191017101812 45 276 6.0 12.0 0.04 0.45 0.07 95 999.8
20191017100330 45 248 4.0 11.0 0.01 0.42 0.04 95 999.9
20191017094820 45 293 9.0 14.0 0.01 0.42 0.04 95 999.9
20191017093325 45 283 5.0 10.0 0.00 0.41 0.03 95 999.8
20191017091813 45 285 5.0 12.0 0.00 0.41 0.03 95 999.8
20191017090318 45 266 6.0 11.0 0.01 0.41 0.03 95 999.9
20191017084822 45 290 6.0 10.0 0.03 0.41 0.03 95 999.8
20191017083311 45 266 7.0 12.0 0.03 0.41 0.03 95 999.7
20191017081816 45 283 5.0 12.0 0.03 0.41 0.03 95 999.7
20191017080345 45 283 5.0 12.0 0.02 0.40 0.02 94 999.8
20191017074818 45 248 5.0 9.0 0.00 0.38 0.00 94 999.8
20191017073326 45 273 6.0 11.0 0.00 0.38 0.00 93 999.9
20191017071830 45 285 8.0 16.0 0.00 0.38 0.00 93 1000.0
20191017070400 45 261 5.0 13.0 0.00 0.38 0.00 93 1000.2
20191017064820 46 262 6.0 9.0 0.00 0.38 0.00 94 1000.3
20191017063328 45 294 5.0 8.0 0.00 0.38 0.00 94 1000.7
20191017061812 45 283 5.0 10.0 0.00 0.38 0.00 94 1000.7